This demonstration page uses our WeatherBlox Daily Observations layout. Learn more.

Left ArrowRight Arrow

34.74481, -87.66753

Hourly Observations for June 4, 2018

Temp ( °F °C ) Dew Point ( °F °C ) Humidity (%) Winds ( mph kmh ) Pressure ( in mb ) Visibility ( mi km ) Precip ( " mm )
12:53 am 00:53 Clear 66 18.9 62 16.7 87 87 NNW 3 6 30.03 1017 10 16 0.00 0.00
1:53 am 01:53 Clear 68 20 59 15 73 73 N 3 6 30.02 1017 10 16 0.00 0.00
2:53 am 02:53 Clear 68 20 57 13.9 68 68 Calm 30.01 1016 10 16 0.00 0.00
3:53 am 03:53 Clear 64 17.8 57 13.9 78 78 Calm 30.02 1017 10 16 0.00 0.00
4:53 am 04:53 Clear 61 16.1 58 14.4 90 90 Calm 30.01 1016 10 16 0.00 0.00
5:53 am 05:53 Sunny 61 16.1 58 14.4 90 90 Calm 30.03 1017 10 16 0.00 0.00
6:53 am 06:53 Sunny 65 18.3 59 15 81 81 Calm 30.04 1017 10 16 0.00 0.00
7:53 am 07:53 Sunny 70 21.1 61 16.1 73 73 Calm 30.04 1017 10 16 0.00 0.00
8:53 am 08:53 Sunny 76 24.4 60 15.6 58 58 W 3 6 30.04 1017 10 16 0.00 0.00
9:53 am 09:53 Sunny 81 27.2 57 13.9 44 44 N 10 17 30.02 1017 10 16 0.00 0.00
10:53 am 10:53 Sunny 82 27.8 53 11.7 37 37 N 7 11 30.04 1017 10 16 0.00 0.00
11:53 am 11:53 Sunny 83 28.3 53 11.7 36 36 WNW 7 11 30.02 1017 10 16 0.00 0.00
12:53 pm 12:53 Sunny 84 28.9 52 11.1 33 33 NNW 8 13 30.02 1017 10 16 0.00 0.00
1:53 pm 13:53 Sunny 84 28.9 52 11.1 33 33 VRB 7 11 30.00 1016 10 16 0.00 0.00
2:53 pm 14:53 Sunny 85 29.4 53 11.7 33 33 VRB 7 11 29.98 1015 10 16 0.00 0.00
3:53 pm 15:53 Sunny 85 29.4 52 11.1 32 32 NNW 9 15 29.96 1015 10 16 0.00 0.00
4:53 pm 16:53 Sunny 85 29.4 55 12.8 36 36 N 7 11 29.95 1014 10 16 0.00 0.00
5:53 pm 17:53 Sunny 83 28.3 55 12.8 38 38 NNW 7 11 29.95 1014 10 16 0.00 0.00
6:53 pm 18:53 Sunny 80 26.7 55 12.8 42 42 N 6 9 29.94 1014 10 16 0.00 0.00
7:53 pm 19:53 Sunny 76 24.4 57 13.9 52 52 N 3 6 29.93 1014 10 16 0.00 0.00
8:53 pm 20:53 Clear 71 21.7 60 15.6 68 68 NNW 3 6 29.95 1014 10 16 0.00 0.00
9:53 pm 21:53 Clear 70 21.1 62 16.7 76 76 Calm 29.96 1015 10 16 0.00 0.00
10:53 pm 22:53 Clear 67 19.4 63 17.2 87 87 Calm 29.95 1014 10 16 0.00 0.00
11:53 pm 23:53 Clear 66 18.9 62 16.7 87 87 SE 3 6 29.94 1014 10 16 0.00 0.00

Powered by AerisWeather